Overview Statistics Trail Chart Weather Telemetry Raw packets
 

This is the latest recevied weather packets stored in our database for station/object VK5GR-12. If no packets are shown the sender has not sent any weather packets the latest 10 day(s).

<< 32 33 34 35 36 37 38 >>
Time Temp. Humidity Pressure Rain* Wind** Luminosity Snow
1787904491 17.78° C 64% 1029.6 hPa 0 mm - 10 W/m² -
1787903588 18.33° C 57% 1029.3 hPa 0 mm - 22 W/m² -
1787902687 18.33° C 51% 1029.1 hPa 0 mm - 45 W/m² -
1787901784 18.89° C 52% 1029.2 hPa 0 mm - 31 W/m² -
1787900881 18.89° C 51% 1029 hPa 0 mm - 43 W/m² -
1787899977 19.44° C 50% 1029 hPa 0 mm - 29 W/m² -
1787899075 20° C 49% 1029.1 hPa 0 mm - 94 W/m² -
1787898174 18.89° C 52% 1029.1 hPa 0 mm - 95 W/m² -
1787897269 18.89° C 52% 1029 hPa 0 mm - 65 W/m² -
1787896366 18.89° C 52% 1029.2 hPa 0 mm - 61 W/m² -
1787895462 19.44° C 51% 1029.2 hPa 0 mm - 92 W/m² -
1787894560 20° C 48% 1029 hPa 0 mm - 139 W/m² -
1787893658 20° C 51% 1028.7 hPa 0 mm - 71 W/m² -
1787892757 20.56° C 52% 1028.9 hPa 0 mm - 137 W/m² -
1787891855 21.67° C 45% 1028.6 hPa 0 mm - 139 W/m² -
1787890950 22.78° C 43% 1028.7 hPa 0 mm - 487 W/m² -
1787890046 21.11° C 48% 1028.8 hPa 0 mm - 182 W/m² -
1787889142 20.56° C 50% 1029 hPa 0 mm - 124 W/m² -
1787888238 22.22° C 45% 1029 hPa 0 mm - 579 W/m² -
1787887337 22.78° C 43% 1029.4 hPa 0 mm - 635 W/m² -
1787886438 22.22° C 45% 1029.2 hPa 0 mm - 583 W/m² -
1787885532 22.22° C 46% 1029.5 hPa 0 mm - 547 W/m² -
1787884632 21.67° C 47% 1029.6 hPa 0 mm - 524 W/m² -
1787883729 21.67° C 47% 1029.7 hPa 0 mm - 539 W/m² -
1787882825 21.11° C 48% 1030 hPa 0 mm - 533 W/m² -

* Rain latest hour (hover to see other rain measurements)
** Current wind speed in m/s (hover to see current wind gust speed)